This demonstration page uses our WeatherBlox Daily Observations layout. Learn more.

Left ArrowRight Arrow

Hourly Observations for June 24, 2020

Temp ( °F °C ) Dew Point ( °F °C ) Humidity (%) Winds ( mph kmh ) Pressure ( in mb ) Visibility ( mi km ) Precip ( " mm )
12:53 am 00:53 Clear 75 24 64 18 69 69 SW 7 11 29.92 1013 10 16 0.00 0.00
1:53 am 01:53 Clear 73 23 66 19 78 78 SW 7 11 29.92 1013 10 16 0.00 0.00
2:53 am 02:53 Mostly Clear 73 23 66 19 78 78 SW 8 13 29.92 1013 10 16 0.00 0.00
3:53 am 03:53 Clear 72 22 64 18 78 78 SW 7 11 29.92 1013 10 16 0.00 0.00
4:53 am 04:53 Clear 72 22 66 19 83 83 SW 5 7 29.91 1013 10 16 0.00 0.00
5:53 am 05:53 Clear 70 21 64 18 83 83 SW 5 7 29.93 1013 10 16 0.00 0.00
6:53 am 06:53 Sunny 70 21 64 18 83 83 NW 6 9 29.94 1014 10 16 0.00 0.00
7:53 am 07:53 Sunny 73 23 64 18 74 74 NW 6 9 29.94 1014 10 16 0.00 0.00
8:53 am 08:53 Mostly Cloudy 73 23 64 18 74 74 NW 8 13 29.96 1015 10 16 0.00 0.00
9:53 am 09:53 Mostly Cloudy 73 23 66 19 78 78 SW 6 9 29.97 1015 10 16 0.00 0.00
10:53 am 10:53 Partly Cloudy 75 24 66 19 74 74 SW 6 9 29.96 1014 10 16 0.00 0.00
11:53 am 11:53 Partly Cloudy 79 26 66 19 65 65 W 8 13 29.96 1015 10 16 0.00 0.00
1:53 pm 13:53 Mostly Cloudy 81 27 66 19 62 62 W 7 11 29.95 1014 10 16 0.00 0.00
2:53 pm 14:53 Mostly Cloudy 79 26 66 19 65 65 NNW 10 17 29.95 1014 10 16 0.00 0.00
3:53 pm 15:53 Mostly Cloudy 79 26 66 19 65 65 NNW 5 7 29.96 1015 10 16 0.00 0.00
4:53 pm 16:53 Mostly Cloudy 79 26 70 21 74 74 NW 5 7 29.94 1014 10 16 0.00 0.00
5:53 pm 17:53 Cloudy with Light Rain 75 24 70 21 83 83 NNW 3 6 29.96 1014 10 16 0.00 0.00
6:53 pm 18:53 Cloudy with Light Rain 73 23 68 20 83 83 N 3 6 29.98 1015 10 16 0.00 0.00
7:53 pm 19:53 Cloudy with Light Rain 72 22 68 20 88 88 Calm 29.98 1015 10 16 0.00 0.00
8:53 pm 20:53 Mostly Cloudy with Light Rain 72 22 70 21 94 94 SW 3 6 29.99 1016 9 14 0.00 0.00
10:53 pm 22:53 Cloudy with Light Rain 72 22 68 20 88 88 E 3 6 29.95 1014 10 16 0.00 0.00
11:53 pm 23:53 Cloudy with Light Rain 72 22 66 19 83 83 Calm 29.96 1015 10 16 0.00 0.00

Powered by AerisWeather